Regional Weather Roundup
Issued by NWS Charleston, WV

Home | Current Version | Previous Version | Text Only | Print | Product List | Glossary Off
Versions: 1 2 3 4 5 6 7 8 9 10 11 12 13 14 15 16 17 18 19 20 21 22 23 24 25 26 27 28 29 30 31 32 33 34 35 36 37 38 39 40 41 42 43 44 45 46 47 48 49 50

450
ASUS41 KRLX 290910
RWRRLX
West Virginia Regional Weather Roundup
National Weather Service Charleston WV
500 AM EDT FRI JUL 29 2016

Note: "fair" indicates few or no clouds below 12,000 feet with no
significant weather and/or obstructions to visibility.

WVZ003-291000-
Northern Panhandle of West Virginia

CITY           SKY/WX    TMP DP  RH WIND       PRES   REMARKS
WHEELING       FOG       69  66  90 CALM      29.93S VSB 1/4
$$

WVZ009-291000-
Northwest West Virginia

CITY           SKY/WX    TMP DP  RH WIND       PRES   REMARKS
PARKERSBURG    LGT RAIN  71  70  96 S3        29.95S FOG
$$

WVZ006-291000-
Western West Virginia

CITY           SKY/WX    TMP DP  RH WIND       PRES   REMARKS
HUNTINGTON     CLOUDY    72  70  93 SW3       29.94S
$$

WVZ015-291000-
West Central West Virginia

CITY           SKY/WX    TMP DP  RH WIND       PRES   REMARKS
CHARLESTON     LGT RAIN  71  69  93 S5        29.95R FOG
$$

WVZ022-031-291000-
North Central West Virginia

CITY           SKY/WX    TMP DP  RH WIND       PRES   REMARKS
CLARKSBURG     CLOUDY    69  67  93 W5        29.94R
MORGANTOWN     CLOUDY    69  67  93 NW3       29.94R
$$

WVZ025-035-042-045-291000-
Southern West Virginia

CITY           SKY/WX    TMP DP  RH WIND       PRES   REMARKS
BECKLEY        CLOUDY    66  65  96 NW3       30.01R
LOGAN          CLOUDY    70  70 100 W6        29.98R
BLUEFIELD      CLOUDY    65  63  93 NW8       30.04R
LEWISBURG      MOCLDY    67  65  93 W6        29.98S
$$

WVZ047-291000-
Northern Mountains of West Virginia

CITY           SKY/WX    TMP DP  RH WIND       PRES   REMARKS
ELKINS         CLOUDY    68  65  90 CALM      29.96S
$$

WVZ052-291000-
Eastern Panhandle of West Virginia

CITY           SKY/WX    TMP DP  RH WIND       PRES   REMARKS
MARTINSBURG    CLOUDY    70  68  93 CALM      29.84F
PETERSBURG     CLOUDY    71  69  96 CALM      29.90S
$$




USA.gov is the U.S. government's official web portal to all federal, state and local government web resources and services.